This is the latest recevied weather packets stored in our database for station/object W1GK. If no packets are shown the sender has not sent any weather packets the latest 1 day(s).
| Time | Temp. | Humidity | Pressure | Rain* | Wind** | Luminosity | Snow |
|---|---|---|---|---|---|---|---|
| 1777995599 | 16.67° C | 38% | 1011.3 hPa | 0 mm | 2.68 m/s, 178° | 554 W/m² | - |
| 1777994999 | 16.67° C | 39% | 1011.2 hPa | 0 mm | 3.13 m/s, 145° | 494 W/m² | - |
| 1777994399 | 16.11° C | 40% | 1011.2 hPa | 0 mm | 3.13 m/s, 183° | 478 W/m² | - |
| 1777993799 | 15.56° C | 41% | 1011.1 hPa | 0 mm | 3.13 m/s, 142° | 371 W/m² | - |
| 1777993197 | 15° C | 42% | 1011.1 hPa | 0 mm | 2.24 m/s, 245° | 385 W/m² | - |
| 1777992598 | 15° C | 42% | 1011.1 hPa | 0 mm | 3.58 m/s, 182° | 424 W/m² | - |
| 1777991997 | 15° C | 44% | 1011.1 hPa | 0 mm | 1.34 m/s, 146° | 371 W/m² | - |
| 1777991398 | 14.44° C | 45% | 1011.1 hPa | 0 mm | 2.24 m/s, 179° | 346 W/m² | - |
| 1777990799 | 13.89° C | 46% | 1011 hPa | 0 mm | 2.24 m/s, 205° | 308 W/m² | - |
| 1777990199 | 13.89° C | 46% | 1011 hPa | 0 mm | 3.13 m/s, 163° | 244 W/m² | - |
| 1777989599 | 13.33° C | 47% | 1010.8 hPa | 0 mm | 2.24 m/s, 161° | 195 W/m² | - |
| 1777988999 | 12.78° C | 48% | 1010.7 hPa | 0 mm | 1.79 m/s, 146° | 163 W/m² | - |
| 1777988399 | 12.78° C | 48% | 1010.7 hPa | 0 mm | 2.68 m/s, 182° | 135 W/m² | - |
| 1777987798 | 12.22° C | 49% | 1010.5 hPa | 0 mm | 2.68 m/s, 131° | 107 W/m² | - |
| 1777987199 | 12.22° C | 50% | 1010.5 hPa | 0 mm | 2.24 m/s, 159° | 21 W/m² | - |
| 1777986599 | 12.22° C | 49% | 1010.4 hPa | 0 mm | 3.13 m/s, 163° | 16 W/m² | - |
| 1777985998 | 12.22° C | 49% | 1010.4 hPa | 0 mm | 2.24 m/s, 138° | 12 W/m² | - |
| 1777985396 | 12.22° C | 49% | 1010.3 hPa | 0 mm | 2.68 m/s, 203° | 7 W/m² | - |
| 1777984798 | 12.22° C | 49% | 1010.3 hPa | 0 mm | 3.13 m/s, 159° | 0 W/m² | - |
| 1777984197 | 12.22° C | 49% | 1010.3 hPa | 0 mm | 2.24 m/s, 161° | 0 W/m² | - |
| 1777983598 | 12.22° C | 50% | 1010.2 hPa | 0 mm | 2.24 m/s, 161° | 0 W/m² | - |
* Rain latest hour (hover to see other rain measurements)
** Current wind speed in m/s (hover to see current wind gust speed)